Retour au catalogue

STARLINK-37884

ActifCommunicationsSSO
NORAD 69655·PAYLOAD·🇺🇸 United States

Lancé Jun 21, 2026 depuis Vandenberg Space Force Base

Loading…

Prochains Passages (prochaines 24 heures)

TLE

FraisSource: CelesTrak SupGP

Époque: Sep 15, 2026, 04:04 UTC

1 69655C 26143G   26258.16993056 -.00047105  00000+0 -14623-2 0  2583
2 69655  97.2840 301.3670 0001337  92.7400 178.0999 15.33461538    12

Suivez STARLINK-37884 en temps réel avec AllMySat

Download on the App Store